NOAA 16 DEB, 41709

Orbit data source: Space-Track

NOAA 16 DEB, 41709 is space debris in SSO originally from a launch on Thu, 21 Sep 2000 UTC launched from the Air Force Western Test Range (AFWTR). Debris objects in space refer to the collection of defunct objects orbiting the Earth. Examples of debris include non-operational satellites, rocket bodies, and fragments generated from explosions, collisions, or faulty payload assembly.

Loading next visibility...
Identifier
41709, 2000-055PP
Orbit
SSO
Country
Flag of USUS
Related business
Manufacturer
Unknown
Mission
Spacecraft
Bus & Motor
Unknown
Mass
Unknown
Launch date (UTC)
2000-09-21 (25 years ago)
Launch vehicle
Unknown
Launch site
Air Force Western Test Range (AFWTR)
Object type
Payload
Rocket body
Debris
Shape & HBR
Unknown shape, 0.1 m
Radar Cross Section
Small (<0.1 m²)

Expand to show TLE details & history
Last TLE update: 2 days ago

TLE from 2 days ago
0 NOAA 16 DEB
1 41709U 00055PP  25304.37760206  .00055933  00000-0  76351-2 0  9995
2 41709  98.9502 142.8772 0017994  22.5010 337.6983 14.78239207500789
Epoch: 2025-10-31T09:03Z
TLE epoch observation values (Epoch: 2025-10-31T09:03:44.817Z)
Latitude
-0.00005°
Longitude
-32.98243°
Altitude
626.199 km
Speed
7.552 km/s
True Right ascension
09h 31m 30s
True Declination
0° 00' 00"
Sunlit
Object was in daylight at epoch
Visualization orbit readout
Latitude
Unknown
Longitude
Unknown
Altitude
Unknown
Speed
Unknown
Apparent Right ascension
Unknown
Apparent Declination
Unknown
Sunlit
N/A
Visualization observer readout
Local Sidereal Time
03:24:57
Azimuth
Unknown
Elevation
Unknown
Doppler factor
Unknown
Orbital elements
Apogee altitude
644.595 km
Perigee altitude
619.367 km
Semi-major axis
7,010.118 km
Eccentricity
0.0018
Inclination
98.9502°
RAAN
142.8772°
Arg. of periapsis
22.501°
True anomaly
337.61989°
Mean anomaly
337.6983°
Eccentric anomaly
337.65911°
Mean motion
3.6979 °/min
Orbital period
97.35 mins
BSTAR
0.0076351
Loading maneuver chart data...
Computing Atmospheric mass density...
Loading historical data...
Loading historical data...
Loading historical data...
Loading historical data...
Loading historical data...
Loading historical data...
Loading historical data...

Documentation

Showing up to 5 results
|